EW1845 Weather Reports


Display with metric or nautical units.
time (UTC)temp
F
wind
direction
speed
MPH
gust
MPH
rain 1hr
in
rain 24hr
in
rain mn
in
humidity
%
barometer
mb
20260906090105 71 1 0.0 1.0 0.00 0.00 0.00 44 1011.3
20260906085557 72 1 0.0 0.0 0.00 0.00 0.00 44 1011.3
20260906084612 71 1 0.0 0.0 0.00 0.00 0.00 44 1011.4
20260906084503 71 1 0.0 1.0 0.00 0.00 0.00 44 1011.4
20260906083619 71 342 0.0 0.0 0.00 0.00 0.00 45 1011.4
20260906083103 71 342 0.0 0.0 0.00 0.00 0.00 47 1011.4
20260906081506 71 342 0.0 1.0 0.00 0.00 0.00 42 1011.7
20260906081459 71 342 0.0 0.0 0.00 0.00 0.00 42 1011.6
20260906080425 71 342 0.0 0.0 0.00 0.00 0.00 45 1011.6
20260906080002 71 342 0.0 1.0 0.00 0.00 0.00 46 1011.6
20260906075434 71 342 0.0 0.0 0.00 0.00 0.00 44 1011.6
20260906074611 71 342 0.0 1.0 0.00 0.00 0.00 48 1011.6
20260906074457 72 342 0.0 0.0 0.00 0.00 0.00 48 1011.5
20260906073446 72 342 0.0 0.0 0.00 0.00 0.00 45 1011.6
20260906073005 71 341 0.0 2.0 0.00 0.00 0.00 46 1011.7
20260906072452 72 49 0.0 0.0 0.00 0.00 0.00 45 1011.6
20260906071604 71 341 0.0 2.0 0.00 0.00 0.00 50 1011.5
20260906071431 72 342 0.0 1.0 0.00 0.00 0.00 49 1011.5
20260906065305 72 338 0.0 0.0 0.00 0.00 0.00 45 1011.3
20260906064503 71 337 0.0 2.0 0.00 0.00 0.00 45 1011.4
20260906063107 72 86 0.0 0.0 0.00 0.00 0.00 45 1011.6
20260906063103 71 86 0.0 1.0 0.00 0.00 0.00 45 1011.6
20260906062046 71 86 0.0 0.0 0.00 0.00 0.00 42 1011.6
20260906061506 71 86 0.0 1.0 0.00 0.00 0.00 45 1011.7
20260906060003 72 95 0.0 1.0 0.00 0.00 0.00 45 1011.7
20260906055902 72 95 0.0 0.0 0.00 0.00 0.00 45 1011.7
20260906054922 74 42 0.0 0.0 0.00 0.00 0.00 45 1011.6
20260906054604 73 42 0.0 1.0 0.00 0.00 0.00 46 1011.7
20260906053932 74 25 0.0 1.0 0.00 0.00 0.00 46 1011.6
20260906053003 73 244 0.0 1.0 0.00 0.00 0.00 43 1011.7
20260906052921 74 244 0.0 0.0 0.00 0.00 0.00 43 1011.7
20260906051602 72 211 0.0 1.0 0.00 0.00 0.00 42 1011.9
20260906050726 72 211 0.0 0.0 0.00 0.00 0.00 41 1011.7
20260906050128 71 211 0.0 1.0 0.00 0.00 0.00 43 1011.8
20260906044504 72 211 0.0 1.0 0.00 0.00 0.00 43 1011.8
20260906043422 72 211 0.0 0.0 0.00 0.00 0.00 45 1011.8
20260906043102 72 211 1.0 1.0 0.00 0.00 0.00 44 1011.9
20260906042434 73 211 0.0 0.0 0.00 0.00 0.00 43 1011.8
20260906041502 72 211 0.0 0.0 0.00 0.00 0.00 43 1011.9
20260906041424 72 210 0.0 0.0 0.00 0.00 0.00 44 1011.8
20260906040352 72 211 0.0 0.0 0.00 0.00 0.00 44 1011.7
20260906040004 72 211 0.0 1.0 0.00 0.00 0.00 45 1011.7
20260906035412 73 211 0.0 0.0 0.00 0.00 0.00 44 1011.5
20260906034607 72 210 0.0 1.0 0.00 0.00 0.00 45 1011.7
20260906034359 73 210 0.0 0.0 0.00 0.00 0.00 43 1011.6
20260906033404 73 211 0.0 0.0 0.00 0.00 0.00 44 1011.5
20260906033002 73 211 0.0 1.0 0.00 0.00 0.00 43 1011.5
20260906032342 74 210 0.0 0.0 0.00 0.00 0.00 46 1011.3
20260906031605 73 210 0.0 0.0 0.00 0.00 0.00 48 1011.3
20260906031347 74 210 0.0 0.0 0.00 0.00 0.00 47 1011.3
20260906030354 75 210 0.0 0.0 0.00 0.00 0.00 47 1011.1
20260906030109 75 210 0.0 1.0 0.00 0.00 0.00 46 1011.2
20260906025327 76 210 0.0 0.0 0.00 0.00 0.00 46 1011.2
20260906024503 76 210 0.0 2.0 0.00 0.00 0.00 45 1011.2
20260906024306 76 210 0.0 1.0 0.00 0.00 0.00 45 1011.2
20260906023258 77 227 0.0 2.0 0.00 0.00 0.00 44 1011.2
20260906023003 76 180 0.0 3.0 0.00 0.00 0.00 44 1011.3
20260906022233 77 229 0.0 2.0 0.00 0.00 0.00 44 1011.2
20260906021608 77 218 0.0 2.0 0.00 0.00 0.00 43 1011.2
20260906021254 78 199 0.0 1.0 0.00 0.00 0.00 43 1011.1
20260906020245 78 221 0.0 0.0 0.00 0.00 0.00 44 1011.1
20260906020107 78 221 0.0 4.0 0.00 0.00 0.00 44 1011.1
20260906015247 79 179 0.0 3.0 0.00 0.00 0.00 45 1011.1
20260906014504 79 202 1.0 4.0 0.00 0.00 0.00 43 1011.1
20260906014220 79 245 0.0 5.0 0.00 0.00 0.00 44 1011.0
20260906013146 80 203 1.0 5.0 0.00 0.00 0.00 45 1011.1
20260906013102 79 243 1.0 5.0 0.00 0.00 0.00 45 1011.1
20260906012136 80 197 1.0 4.0 0.00 0.00 0.00 44 1011.1
20260906011510 80 220 0.0 4.0 0.00 0.00 0.00 43 1011.0
20260906010006 82 223 1.0 6.0 0.00 0.00 0.00 43 1010.9
20260906010002 81 222 1.0 4.0 0.00 0.00 0.00 43 1011.0
20260906004605 82 203 2.0 7.0 0.00 0.00 0.00 42 1011.1
20260906003830 83 235 2.0 6.0 0.00 0.00 0.00 41 1010.9
20260906003003 83 214 2.0 7.0 0.00 0.00 0.00 40 1010.9
20260906002852 83 212 2.0 6.0 0.00 0.00 0.00 39 1010.9
20260906001900 83 170 2.0 5.0 0.00 0.00 0.00 38 1010.9
20260906001615 83 212 3.0 6.0 0.00 0.00 0.00 36 1011.0
20260905234528 84 165 3.0 10.0 0.00 0.00 0.00 42 1010.9
20260905234507 83 177 3.0 11.0 0.00 0.00 0.00 42 1010.9
20260905233552 85 235 3.0 11.0 0.00 0.00 0.00 43 1010.9
20260905233112 84 258 4.0 12.0 0.00 0.00 0.00 44 1010.9
20260905231505 85 210 4.0 7.0 0.00 0.00 0.00 42 1011.0
20260905231410 86 225 3.0 7.0 0.00 0.00 0.00 41 1011.0
20260905230426 86 213 3.0 7.0 0.00 0.00 0.00 40 1011.0
20260905230003 86 153 3.0 7.0 0.00 0.00 0.00 39 1011.1
20260905225405 86 205 3.0 9.0 0.00 0.00 0.00 39 1011.1
20260905224609 85 152 3.0 10.0 0.00 0.00 0.00 40 1011.2
20260905224413 86 217 3.0 11.0 0.00 0.00 0.00 40 1011.2
20260905223424 86 231 5.0 11.0 0.00 0.00 0.00 40 1011.3
20260905223008 86 181 5.0 9.0 0.00 0.00 0.00 40 1011.3
20260905222352 87 250 3.0 10.0 0.00 0.00 0.00 38 1011.3
20260905221603 87 233 5.0 11.0 0.00 0.00 0.00 38 1011.5
20260905221407 87 236 3.0 8.0 0.00 0.00 0.00 39 1011.5
20260905220412 87 178 4.0 8.0 0.00 0.00 0.00 38 1011.6
20260905220105 87 220 5.0 10.0 0.00 0.00 0.00 37 1011.6
20260905215429 88 223 3.0 8.0 0.00 0.00 0.00 38 1011.6
20260905214505 87 210 4.0 9.0 0.00 0.00 0.00 39 1011.7
20260905214413 88 193 2.0 8.0 0.00 0.00 0.00 39 1011.7
20260905213359 87 184 3.0 8.0 0.00 0.00 0.00 40 1011.7
20260905213109 87 238 3.0 9.0 0.00 0.00 0.00 41 1011.9
20260905212342 87 202 4.0 8.0 0.00 0.00 0.00 40 1012.0
20260905211506 87 226 5.0 10.0 0.00 0.00 0.00 39 1011.9
20260905211351 88 240 3.0 10.0 0.00 0.00 0.00 40 1012.0
20260905210340 88 236 3.0 10.0 0.00 0.00 0.00 37 1012.0
20260905210005 89 274 4.0 7.0 0.00 0.00 0.00 36 1012.0
20260905205314 88 149 2.0 9.0 0.00 0.00 0.00 34 1012.0
20260905204604 89 271 3.0 10.0 0.00 0.00 0.00 33 1012.3
20260905204330 89 192 2.0 9.0 0.00 0.00 0.00 32 1012.2
20260905203350 89 149 2.0 9.0 0.00 0.00 0.00 29 1012.3
20260905203005 88 232 4.0 8.0 0.00 0.00 0.00 29 1012.3
20260905202351 88 198 3.0 10.0 0.00 0.00 0.00 30 1012.4
20260905201609 87 46 3.0 11.0 0.00 0.00 0.00 29 1012.5
20260905201333 88 193 3.0 10.0 0.00 0.00 0.00 29 1012.5
20260905200345 89 264 1.0 9.0 0.00 0.00 0.00 29 1012.5
20260905200145 89 210 2.0 6.0 0.00 0.00 0.00 30 1012.7
20260905194502 87 207 2.0 8.0 0.00 0.00 0.00 31 1012.9
20260905194234 87 208 1.0 7.0 0.00 0.00 0.00 32 1012.8
20260905193218 86 207 2.0 7.0 0.00 0.00 0.00 33 1012.8
20260905193102 86 243 3.0 8.0 0.00 0.00 0.00 33 1012.9
20260905191503 84 166 1.0 9.0 0.00 0.00 0.00 37 1013.2
20260905191055 84 152 2.0 7.0 0.00 0.00 0.00 37 1013.2
20260905190027 84 217 2.0 9.0 0.00 0.00 0.00 36 1013.4
20260905190003 84 252 3.0 9.0 0.00 0.00 0.00 36 1013.4
20260905185030 84 26 1.0 9.0 0.00 0.00 0.00 37 1013.4
20260905184611 83 190 2.0 10.0 0.00 0.00 0.00 38 1013.5
20260905184024 83 165 2.0 8.0 0.00 0.00 0.00 42 1013.5
20260905183003 82 207 2.0 6.0 0.00 0.00 0.00 38 1013.7
20260905181909 82 204 1.0 6.0 0.00 0.00 0.00 40 1013.8
20260905181604 82 280 0.0 6.0 0.00 0.00 0.00 42 1013.8
20260905180856 81 193 2.0 6.0 0.00 0.00 0.00 43 1013.8
20260905180108 80 243 2.0 7.0 0.00 0.00 0.00 45 1013.9
20260905174707 81 198 0.0 4.0 0.00 0.00 0.00 46 1013.6
20260905174502 80 147 0.0 4.0 0.00 0.00 0.00 44 1013.7
20260905173724 79 162 1.0 5.0 0.00 0.00 0.00 46 1013.6
20260905173103 79 163 1.0 5.0 0.00 0.00 0.00 47 1013.5
20260905172727 79 210 0.0 6.0 0.00 0.00 0.00 49 1013.5
20260905171729 77 213 1.0 6.0 0.00 0.00 0.00 52 1013.6
20260905171508 77 187 4.0 7.0 0.00 0.00 0.00 52 1013.6
20260905170747 76 215 2.0 5.0 0.00 0.00 0.00 56 1013.5
20260905170002 75 206 1.0 6.0 0.00 0.00 0.00 58 1013.5
20260905165720 76 229 1.0 5.0 0.00 0.00 0.00 60 1013.4
20260905164604 74 243 1.0 4.0 0.00 0.00 0.00 64 1013.4
20260905163521 74 213 0.0 2.0 0.00 0.00 0.00 67 1013.4
20260905163003 73 221 0.0 3.0 0.00 0.00 0.00 68 1013.4
20260905162523 73 213 0.0 2.0 0.00 0.00 0.00 68 1013.3
20260905161611 70 325 0.0 2.0 0.00 0.00 0.00 72 1013.4
20260905161542 71 325 0.0 0.0 0.00 0.00 0.00 72 1013.3
20260905160003 68 322 0.0 2.0 0.00 0.00 0.00 77 1013.3
20260905155343 67 327 0.0 2.0 0.00 0.00 0.00 78 1013.3
20260905154602 66 330 0.0 2.0 0.00 0.00 0.00 82 1013.3
20260905154342 66 314 0.0 1.0 0.00 0.00 0.00 82 1013.3
20260905153404 65 315 0.0 2.0 0.00 0.00 0.00 87 1013.1
20260905153004 64 304 0.0 3.0 0.00 0.00 0.00 89 1013.1
20260905152330 64 338 0.0 0.0 0.00 0.00 0.00 91 1013.2
20260905151603 62 345 0.0 1.0 0.00 0.00 0.00 92 1013.2
20260905151343 63 345 0.0 0.0 0.00 0.00 0.00 93 1013.1
20260905145230 61 355 0.0 0.0 0.00 0.00 0.00 93 1012.9
20260905144503 60 355 0.0 1.0 0.00 0.00 0.00 93 1013.0
20260905144240 60 355 0.0 0.0 0.00 0.00 0.00 93 1012.9
20260905143247 60 355 0.0 0.0 0.00 0.00 0.00 94 1012.7
20260905143105 60 355 0.0 1.0 0.00 0.00 0.00 94 1012.8
20260905142255 60 345 0.0 0.0 0.00 0.00 0.00 94 1012.7
20260905141503 59 344 0.0 1.0 0.00 0.00 0.00 94 1012.7
20260905141300 59 344 0.0 0.0 0.00 0.00 0.00 95 1012.7
20260905140321 59 344 0.0 0.0 0.00 0.00 0.00 94 1012.6
20260905140002 58 344 0.0 1.0 0.00 0.00 0.00 93 1012.6
20260905134606 59 344 0.0 1.0 0.00 0.00 0.00 93 1012.4
20260905134148 60 344 0.0 0.0 0.00 0.00 0.00 95 1012.3
20260905133158 59 345 0.0 0.0 0.00 0.00 0.00 94 1012.1
20260905133004 59 345 0.0 1.0 0.00 0.00 0.00 94 1012.2
20260905132124 60 344 0.0 0.0 0.00 0.00 0.00 95 1012.1
20260905131608 59 345 0.0 1.0 0.00 0.00 0.00 94 1012.1
20260905131105 59 345 0.0 0.0 0.00 0.00 0.00 93 1012.0
20260905130107 59 344 0.0 1.0 0.00 0.00 0.00 94 1012.0
20260905130059 60 345 0.0 0.0 0.00 0.00 0.00 94 1012.0
20260905125041 61 344 0.0 0.0 0.00 0.00 0.00 95 1011.9
20260905124503 60 344 0.0 1.0 0.00 0.00 0.00 94 1012.0
20260905124046 61 345 0.0 0.0 0.00 0.00 0.00 95 1011.9
20260905123108 60 344 0.0 1.0 0.00 0.00 0.00 94 1012.0
20260905123046 61 345 0.0 0.0 0.00 0.00 0.00 94 1011.9
20260905121504 60 344 0.0 1.0 0.00 0.00 0.00 95 1012.1
20260905120928 61 344 0.0 0.0 0.00 0.00 0.00 93 1012.1
20260905120003 61 344 0.0 1.0 0.00 0.00 0.00 95 1012.1
20260905115940 61 344 0.0 0.0 0.00 0.00 0.00 95 1012.0
20260905114921 61 345 0.0 0.0 0.00 0.00 0.00 94 1012.0
20260905114612 61 345 0.0 1.0 0.00 0.00 0.00 94 1011.9
20260905113006 62 344 0.0 1.0 0.00 0.00 0.00 94 1012.0
20260905112814 62 344 0.0 0.0 0.00 0.00 0.00 95 1012.0
20260905111747 62 353 0.0 0.0 0.00 0.00 0.00 94 1012.1
20260905111614 62 1 0.0 1.0 0.00 0.00 0.00 94 1012.1
20260905110730 62 1 0.0 1.0 0.00 0.00 0.00 94 1012.0
20260905110104 62 10 0.0 1.0 0.00 0.00 0.00 94 1012.1
20260905105749 62 8 0.0 0.0 0.00 0.00 0.00 94 1012.0
20260905104803 62 13 0.0 0.0 0.00 0.00 0.00 93 1012.2
20260905104502 62 13 0.0 1.0 0.00 0.00 0.00 94 1012.3
20260905103739 62 13 0.0 0.0 0.00 0.00 0.00 93 1012.3
20260905103103 62 13 0.0 1.0 0.00 0.00 0.00 93 1012.3
20260905102751 62 13 0.0 0.0 0.00 0.00 0.00 93 1012.2
20260905101804 63 13 0.0 0.0 0.00 0.00 0.00 93 1012.2
20260905101505 62 13 0.0 1.0 0.00 0.00 0.00 93 1012.3
20260905100828 62 13 0.0 0.0 0.00 0.00 0.00 92 1012.2
20260905100001 62 360 0.0 1.0 0.00 0.00 0.00 93 1012.2
20260905094706 63 347 0.0 0.0 0.00 0.00 0.00 93 1012.2
20260905094612 62 347 0.0 1.0 0.00 0.00 0.00 93 1012.4
20260905093704 62 347 0.0 0.0 0.00 0.00 0.00 92 1012.3
20260905093003 62 346 0.0 1.0 0.00 0.00 0.00 92 1012.3
20260905092705 63 346 0.0 0.0 0.00 0.00 0.00 92 1012.3
20260905091643 63 345 0.0 0.0 0.00 0.00 0.00 91 1012.3
20260905091609 62 345 0.0 1.0 0.00 0.00 0.00 91 1012.3